Location: Wells
(51.2093°N, 2.6446°W)
Time: 06:50:25
(UTC+01:00)

PCSat - Pass Details

Date: 12 March 2026
Orbit: 780 x 790 km, 67.1° (Epoch: 13 April)

Event Time Altitude Azimuth Distance (km) Brightness Sun altitude
Rises 05:28:49 0° 319° (NW) 3,296 12.5 -10.6°
Reaches altitude 10° 05:31:47 10° 335° (NNW) 2,365 11.9 -10.2°
Maximum altitude 05:35:59 22° 26° (NNE) 1,671 11.7 -9.5°
Drops below altitude 10° 05:40:10 10° 77° (ENE) 2,359 13.7 -8.9°
Sets 05:43:07 0° 92° (E) 3,286 15.1 -8.4°
